DW9527 Weather Reports


Display with metric or nautical units.
time (UTC)temp
F
wind
direction
speed
MPH
gust
MPH
rain 1hr
in
rain 24hr
in
rain mn
in
humidity
%
barometer
mb
20190319060704 47 118 8.0 15.0 0.00 0.00 0.00 59 1023.2
20190319060205 47 126 6.0 14.0 0.00 0.00 0.00 59 1023.3
20190319055705 47 87 8.0 13.0 0.00 0.00 0.00 59 1023.4
20190319055205 47 99 7.0 10.0 0.00 0.00 0.00 58 1023.4
20190319054705 48 167 7.0 13.0 0.00 0.00 0.00 58 1023.4
20190319054205 48 139 7.0 15.0 0.00 0.00 0.00 58 1023.4
20190319053704 48 208 5.0 15.0 0.00 0.00 0.00 58 1023.4
20190319053205 48 127 7.0 13.0 0.00 0.00 0.00 58 1023.4
20190319052705 48 114 9.0 13.0 0.00 0.00 0.00 58 1023.4
20190319052205 48 156 6.0 16.0 0.00 0.00 0.00 57 1023.5
20190319051704 48 136 6.0 16.0 0.00 0.00 0.00 57 1023.5
20190319051204 48 140 6.0 14.0 0.00 0.00 0.00 57 1023.5
20190319050705 48 126 7.0 15.0 0.00 0.00 0.00 57 1023.5
20190319050209 48 65 6.0 15.0 0.00 0.00 0.00 57 1023.5
20190319045704 49 115 6.0 15.0 0.00 0.00 0.00 57 1023.5
20190319045205 49 137 6.0 13.0 0.00 0.00 0.00 56 1023.5
20190319044705 49 181 6.0 13.0 0.00 0.00 0.00 56 1023.5
20190319044204 49 91 7.0 13.0 0.00 0.00 0.00 55 1023.5
20190319043705 49 105 6.0 13.0 0.00 0.00 0.00 55 1023.4
20190319043204 49 113 7.0 17.0 0.00 0.00 0.00 55 1023.4
20190319042705 49 108 11.0 17.0 0.00 0.00 0.00 54 1023.4
20190319042205 50 115 9.0 15.0 0.00 0.00 0.00 54 1023.4
20190319041705 50 122 7.0 16.0 0.00 0.00 0.00 54 1023.4
20190319041207 50 175 9.0 16.0 0.00 0.00 0.00 54 1023.5
20190319040705 50 126 10.0 18.0 0.00 0.00 0.00 54 1023.5
20190319040204 50 112 12.0 18.0 0.00 0.00 0.00 54 1023.5
20190319035706 50 73 7.0 17.0 0.00 0.00 0.00 54 1023.6
20190319035204 50 83 7.0 17.0 0.00 0.00 0.00 53 1023.6
20190319034704 51 86 9.0 15.0 0.00 0.00 0.00 53 1023.6
20190319034204 51 89 7.0 15.0 0.00 0.00 0.00 53 1023.6
20190319033705 51 104 10.0 15.0 0.00 0.00 0.00 52 1023.6
20190319033206 51 138 6.0 18.0 0.00 0.00 0.00 52 1023.6
20190319032705 51 111 10.0 20.0 0.00 0.00 0.00 52 1023.6
20190319032204 51 69 10.0 20.0 0.00 0.00 0.00 51 1023.6
20190319031705 52 77 8.0 20.0 0.00 0.00 0.00 51 1023.6
20190319031204 52 112 11.0 20.0 0.00 0.00 0.00 50 1023.5
20190319030704 52 78 12.0 20.0 0.00 0.00 0.00 50 1023.5
20190319030205 52 84 10.0 20.0 0.00 0.00 0.00 49 1023.5
20190319025705 53 119 10.0 15.0 0.00 0.00 0.00 49 1023.6
20190319025204 53 76 8.0 15.0 0.00 0.00 0.00 49 1023.6
20190319024708 53 112 10.0 15.0 0.00 0.00 0.00 49 1023.6
20190319024205 53 95 10.0 21.0 0.00 0.00 0.00 48 1023.6
20190319023704 53 199 7.0 21.0 0.00 0.00 0.00 48 1023.7
20190319023205 53 34 9.0 21.0 0.00 0.00 0.00 47 1023.7
20190319022704 54 98 10.0 21.0 0.00 0.00 0.00 47 1023.7
20190319022208 54 60 12.0 21.0 0.00 0.00 0.00 47 1023.7
20190319021705 54 90 10.0 21.0 0.00 0.00 0.00 46 1023.7
20190319021205 54 102 8.0 15.0 0.00 0.00 0.00 46 1023.7
20190319020704 54 112 6.0 17.0 0.00 0.00 0.00 46 1023.7
20190319020205 54 91 9.0 17.0 0.00 0.00 0.00 45 1023.8
20190319015705 54 120 6.0 14.0 0.00 0.00 0.00 45 1023.8
20190319015205 54 112 9.0 14.0 0.00 0.00 0.00 45 1023.8
20190319014705 54 112 6.0 12.0 0.00 0.00 0.00 45 1023.6
20190319014205 55 80 5.0 12.0 0.00 0.00 0.00 45 1023.6
20190319013704 55 92 6.0 10.0 0.00 0.00 0.00 44 1023.8
20190319013205 55 61 6.0 10.0 0.00 0.00 0.00 44 1023.8
20190319012704 55 107 5.0 9.0 0.00 0.00 0.00 44 1023.8
20190319012206 55 71 4.0 9.0 0.00 0.00 0.00 44 1023.8
20190319011704 55 136 6.0 9.0 0.00 0.00 0.00 44 1023.8
20190319011205 55 112 5.0 9.0 0.00 0.00 0.00 43 1023.9
20190319010705 55 92 2.0 9.0 0.00 0.00 0.00 43 1023.9
20190319010204 55 93 4.0 8.0 0.00 0.00 0.00 43 1023.9
20190319005705 56 99 5.0 8.0 0.00 0.00 0.00 42 1023.8
20190319005205 56 100 5.0 8.0 0.00 0.00 0.00 42 1023.8
20190319004705 56 81 2.0 12.0 0.00 0.00 0.00 42 1023.8
20190319004205 57 134 5.0 12.0 0.00 0.00 0.00 41 1023.8
20190319003704 57 86 6.0 10.0 0.00 0.00 0.00 40 1023.9
20190319003205 57 138 5.0 10.0 0.00 0.00 0.00 40 1023.9
20190319002704 58 59 5.0 10.0 0.00 0.00 0.00 40 1023.9
20190319002204 58 126 6.0 12.0 0.00 0.00 0.00 39 1024.0
20190319001705 59 127 6.0 12.0 0.00 0.00 0.00 39 1024.0
20190319001204 59 163 7.0 12.0 0.00 0.00 0.00 38 1024.0
20190319000705 59 133 3.0 9.0 0.00 0.00 0.00 38 1024.0
20190319000204 59 121 5.0 9.0 0.00 0.00 0.00 38 1024.0
20190318235705 60 79 9.0 9.0 0.00 0.00 0.00 38 1023.9
20190318235205 60 158 4.0 9.0 0.00 0.00 0.00 38 1023.9
20190318234704 60 133 3.0 10.0 0.00 0.00 0.00 37 1024.0
20190318234205 60 94 8.0 13.0 0.00 0.00 0.00 37 1024.0
20190318233705 60 91 8.0 14.0 0.00 0.00 0.00 37 1024.1
20190318233205 60 76 7.0 14.0 0.00 0.00 0.00 37 1024.1
20190318232705 60 84 7.0 20.0 0.00 0.00 0.00 37 1024.1
20190318232205 60 91 7.0 20.0 0.00 0.00 0.00 36 1024.1
20190318231705 61 124 11.0 16.0 0.00 0.00 0.00 35 1024.1
20190318231204 61 99 10.0 15.0 0.00 0.00 0.00 36 1024.1
20190318230706 61 140 6.0 13.0 0.00 0.00 0.00 36 1024.1
20190318230205 61 118 9.0 13.0 0.00 0.00 0.00 36 1024.1
20190318225705 61 109 7.0 13.0 0.00 0.00 0.00 35 1024.1
20190318225204 61 180 7.0 14.0 0.00 0.00 0.00 35 1024.1
20190318224705 62 125 7.0 14.0 0.00 0.00 0.00 35 1024.1
20190318224204 62 135 10.0 14.0 0.00 0.00 0.00 35 1024.1
20190318223704 61 118 7.0 13.0 0.00 0.00 0.00 35 1024.3
20190318223205 61 99 8.0 17.0 0.00 0.00 0.00 35 1024.3
20190318222705 62 56 10.0 17.0 0.00 0.00 0.00 35 1024.3
20190318222204 61 62 8.0 15.0 0.00 0.00 0.00 35 1024.5
20190318221706 61 72 8.0 15.0 0.00 0.00 0.00 35 1024.5
20190318221204 61 92 12.0 15.0 0.00 0.00 0.00 34 1024.5
20190318220705 62 103 6.0 12.0 0.00 0.00 0.00 35 1024.5
20190318220205 62 120 5.0 15.0 0.00 0.00 0.00 35 1024.5
20190318215705 61 183 6.0 15.0 0.00 0.00 0.00 35 1024.5
20190318215205 62 74 10.0 16.0 0.00 0.00 0.00 34 1024.5
20190318214705 62 135 11.0 16.0 0.00 0.00 0.00 34 1024.5
20190318214204 62 5 6.0 21.0 0.00 0.00 0.00 34 1024.5
20190318213705 61 119 8.0 21.0 0.00 0.00 0.00 34 1024.7
20190318213205 63 76 13.0 16.0 0.00 0.00 0.00 33 1024.7
20190318212704 61 112 5.0 13.0 0.00 0.00 0.00 35 1024.7
20190318212205 62 153 8.0 14.0 0.00 0.00 0.00 34 1024.9
20190318211705 62 93 10.0 17.0 0.00 0.00 0.00 34 1024.9
20190318211205 62 94 6.0 17.0 0.00 0.00 0.00 33 1025.1
20190318210705 62 180 4.0 13.0 0.00 0.00 0.00 34 1025.1
20190318210205 61 132 7.0 15.0 0.00 0.00 0.00 34 1025.3
20190318205705 62 71 11.0 15.0 0.00 0.00 0.00 33 1025.3
20190318205205 62 146 6.0 15.0 0.00 0.00 0.00 34 1025.3
20190318204705 62 110 8.0 18.0 0.00 0.00 0.00 34 1025.4
20190318204204 62 151 8.0 18.0 0.00 0.00 0.00 34 1025.4
20190318203706 62 22 18.0 18.0 0.00 0.00 0.00 33 1025.6
20190318203205 62 28 10.0 16.0 0.00 0.00 0.00 33 1025.6
20190318202705 63 97 7.0 16.0 0.00 0.00 0.00 34 1025.6
20190318202204 62 84 5.0 15.0 0.00 0.00 0.00 33 1025.8
20190318201704 61 142 9.0 18.0 0.00 0.00 0.00 35 1025.8
20190318201204 62 99 7.0 18.0 0.00 0.00 0.00 34 1026.2
20190318200705 61 81 6.0 15.0 0.00 0.00 0.00 35 1026.2
20190318200205 61 77 7.0 15.0 0.00 0.00 0.00 34 1026.3
20190318195704 62 116 8.0 15.0 0.00 0.00 0.00 33 1026.4
20190318195206 61 208 9.0 15.0 0.00 0.00 0.00 34 1026.4
20190318194705 62 129 10.0 15.0 0.00 0.00 0.00 33 1026.6
20190318194205 61 21 5.0 12.0 0.00 0.00 0.00 35 1026.6
20190318193704 62 354 5.0 18.0 0.00 0.00 0.00 34 1026.8
20190318193205 61 45 9.0 18.0 0.00 0.00 0.00 34 1026.8
20190318192705 61 298 9.0 16.0 0.00 0.00 0.00 34 1026.8
20190318192204 61 37 8.0 17.0 0.00 0.00 0.00 34 1027.0
20190318191705 61 62 12.0 17.0 0.00 0.00 0.00 34 1027.0
20190318191205 61 138 5.0 17.0 0.00 0.00 0.00 34 1027.2
20190318190705 59 75 9.0 17.0 0.00 0.00 0.00 34 1027.2
20190318190204 61 80 9.0 16.0 0.00 0.00 0.00 35 1027.3
20190318185705 59 133 4.0 17.0 0.00 0.00 0.00 35 1027.4
20190318185205 59 187 12.0 17.0 0.00 0.00 0.00 34 1027.4
20190318184704 59 31 7.0 14.0 0.00 0.00 0.00 34 1027.6
20190318184205 59 81 9.0 16.0 0.00 0.00 0.00 35 1027.6
20190318183704 59 147 9.0 16.0 0.00 0.00 0.00 35 1027.7
20190318183204 59 158 7.0 15.0 0.00 0.00 0.00 35 1027.7
20190318182705 59 27 8.0 17.0 0.00 0.00 0.00 35 1027.7
20190318182204 58 71 7.0 17.0 0.00 0.00 0.00 36 1028.0
20190318181706 59 324 9.0 14.0 0.00 0.00 0.00 36 1028.0
20190318181205 58 63 9.0 15.0 0.00 0.00 0.00 36 1028.1
20190318180705 57 121 10.0 16.0 0.00 0.00 0.00 36 1028.1
20190318180205 57 60 9.0 17.0 0.00 0.00 0.00 37 1028.2
20190318175705 58 93 14.0 17.0 0.00 0.00 0.00 36 1028.4
20190318175205 57 86 8.0 15.0 0.00 0.00 0.00 37 1028.4
20190318174705 57 20 6.0 21.0 0.00 0.00 0.00 38 1028.5
20190318174205 56 90 10.0 21.0 0.00 0.00 0.00 38 1028.5
20190318173705 57 66 14.0 21.0 0.00 0.00 0.00 37 1028.6
20190318173204 56 54 14.0 25.0 0.00 0.00 0.00 37 1028.6
20190318172704 56 95 7.0 25.0 0.00 0.00 0.00 38 1028.6
20190318172206 56 112 9.0 17.0 0.00 0.00 0.00 39 1028.7
20190318171705 55 162 9.0 24.0 0.00 0.00 0.00 39 1028.7
20190318171205 55 92 15.0 24.0 0.00 0.00 0.00 38 1029.0
20190318170705 54 126 10.0 16.0 0.00 0.00 0.00 39 1029.0
20190318170205 54 112 10.0 16.0 0.00 0.00 0.00 39 1029.0
20190318165705 55 57 12.0 20.0 0.00 0.00 0.00 38 1029.0
20190318165205 54 148 11.0 20.0 0.00 0.00 0.00 39 1029.0
20190318164705 55 61 9.0 24.0 0.00 0.00 0.00 39 1029.2
20190318164204 54 85 13.0 24.0 0.00 0.00 0.00 40 1029.2
20190318163705 54 69 12.0 17.0 0.00 0.00 0.00 40 1029.2
20190318163204 54 109 10.0 18.0 0.00 0.00 0.00 40 1029.2
20190318162704 54 73 13.0 18.0 0.00 0.00 0.00 40 1029.2
20190318162204 53 85 12.0 18.0 0.00 0.00 0.00 40 1029.3
20190318161705 53 76 11.0 21.0 0.00 0.00 0.00 41 1029.3
20190318161205 52 279 8.0 21.0 0.00 0.00 0.00 42 1029.2
20190318160706 53 108 12.0 21.0 0.00 0.00 0.00 41 1029.2
20190318160204 52 70 13.0 25.0 0.00 0.00 0.00 40 1029.2
20190318155705 51 127 18.0 25.0 0.00 0.00 0.00 41 1029.2
20190318155205 51 68 8.0 13.0 0.00 0.00 0.00 42 1029.2
20190318154705 51 68 10.0 22.0 0.00 0.00 0.00 42 1029.1
20190318154205 51 112 13.0 23.0 0.00 0.00 0.00 42 1029.1
20190318153704 51 98 12.0 23.0 0.00 0.00 0.00 42 1029.1
20190318153205 51 65 14.0 21.0 0.00 0.00 0.00 42 1029.1
20190318152705 50 65 12.0 21.0 0.00 0.00 0.00 44 1029.1
20190318152205 50 66 13.0 21.0 0.00 0.00 0.00 44 1029.1
20190318151704 49 99 16.0 18.0 0.00 0.00 0.00 45 1029.1
20190318151205 49 57 13.0 26.0 0.00 0.00 0.00 45 1029.3
20190318150704 49 92 13.0 26.0 0.00 0.00 0.00 46 1029.3
20190318150205 48 52 10.0 24.0 0.00 0.00 0.00 46 1029.2
20190318145705 48 105 7.0 24.0 0.00 0.00 0.00 47 1029.1
20190318145205 48 90 15.0 23.0 0.00 0.00 0.00 47 1029.1
20190318144705 47 90 14.0 26.0 0.00 0.00 0.00 48 1028.9
20190318144205 46 76 10.0 26.0 0.00 0.00 0.00 50 1028.9
20190318143705 46 68 17.0 26.0 0.00 0.00 0.00 50 1028.9
20190318143204 46 357 14.0 26.0 0.00 0.00 0.00 51 1028.9
20190318142705 45 91 17.0 26.0 0.00 0.00 0.00 52 1028.9
20190318142205 45 22 13.0 21.0 0.00 0.00 0.00 53 1028.9
20190318141704 44 5 13.0 21.0 0.00 0.00 0.00 54 1028.9
20190318141205 44 35 10.0 21.0 0.00 0.00 0.00 55 1028.8
20190318140705 44 68 13.0 21.0 0.00 0.00 0.00 55 1028.8
20190318140205 43 92 9.0 16.0 0.00 0.00 0.00 57 1028.7
20190318135705 43 30 7.0 15.0 0.00 0.00 0.00 59 1028.7
20190318135204 42 43 10.0 15.0 0.00 0.00 0.00 59 1028.7
20190318134705 41 33 10.0 18.0 0.00 0.00 0.00 61 1028.6
20190318134204 41 16 6.0 18.0 0.00 0.00 0.00 63 1028.6
20190318133704 40 34 14.0 18.0 0.00 0.00 0.00 64 1028.6
20190318133204 40 112 9.0 18.0 0.00 0.00 0.00 66 1028.6
20190318132706 39 81 7.0 18.0 0.00 0.00 0.00 66 1028.6
20190318132205 39 52 10.0 15.0 0.00 0.00 0.00 67 1028.6
20190318131705 39 52 9.0 15.0 0.00 0.00 0.00 68 1028.6
20190318131205 38 105 10.0 15.0 0.00 0.00 0.00 69 1028.5
20190318130705 38 43 9.0 12.0 0.00 0.00 0.00 70 1028.5
20190318130204 37 51 6.0 10.0 0.00 0.00 0.00 71 1028.4
20190318125704 37 75 5.0 10.0 0.00 0.00 0.00 73 1028.3
20190318125205 36 58 5.0 9.0 0.00 0.00 0.00 74 1028.3
20190318124705 36 322 5.0 10.0 0.00 0.00 0.00 74 1028.3
20190318124204 36 32 3.0 10.0 0.00 0.00 0.00 74 1028.3
20190318123705 36 46 5.0 7.0 0.00 0.00 0.00 74 1028.3
20190318123205 36 9 4.0 9.0 0.00 0.00 0.00 73 1028.3
20190318122705 36 229 3.0 9.0 0.00 0.00 0.00 73 1028.3
20190318122205 36 18 3.0 8.0 0.00 0.00 0.00 73 1028.1
20190318121705 36 31 4.0 13.0 0.00 0.00 0.00 72 1028.1
20190318121204 37 316 2.0 13.0 0.00 0.00 0.00 72 1028.0
20190318120705 37 5 3.0 9.0 0.00 0.00 0.00 71 1028.0
20190318120204 37 15 4.0 12.0 0.00 0.00 0.00 71 1028.0
20190318115704 38 22 6.0 12.0 0.00 0.00 0.00 72 1027.8
20190318115205 38 27 6.0 9.0 0.00 0.00 0.00 72 1027.8
20190318114704 38 3 7.0 14.0 0.00 0.00 0.00 72 1027.8
20190318114205 38 45 6.0 14.0 0.00 0.00 0.00 71 1027.8
20190318113705 38 356 6.0 9.0 0.00 0.00 0.00 71 1027.6
20190318113205 38 22 0.0 3.0 0.00 0.00 0.00 71 1027.6
20190318112704 38 200 1.0 9.0 0.00 0.00 0.00 71 1027.6
20190318112204 38 337 3.0 9.0 0.00 0.00 0.00 70 1027.6
20190318111704 38 41 4.0 10.0 0.00 0.00 0.00 70 1027.6
20190318111205 38 352 3.0 10.0 0.00 0.00 0.00 69 1027.1
20190318110705 38 31 6.0 10.0 0.00 0.00 0.00 68 1027.1
20190318110204 38 0 4.0 5.0 0.00 0.00 0.00 67 1027.1
20190318105704 38 338 0.0 0.0 0.00 0.00 0.00 65 1026.7
20190318105204 38 342 0.0 0.0 0.00 0.00 0.00 65 1026.7
20190318104704 39 338 0.0 0.0 0.00 0.00 0.00 64 1026.5
20190318104205 39 285 0.0 0.0 0.00 0.00 0.00 63 1026.5
20190318103705 40 343 0.0 3.0 0.00 0.00 0.00 63 1026.5
20190318103205 40 45 0.0 6.0 0.00 0.00 0.00 63 1026.5
20190318102704 40 80 2.0 9.0 0.00 0.00 0.00 63 1026.5
20190318102205 39 24 1.0 9.0 0.00 0.00 0.00 63 1026.4
20190318101704 40 137 0.0 5.0 0.00 0.00 0.00 62 1026.4
20190318101205 40 343 0.0 5.0 0.00 0.00 0.00 62 1026.4
20190318100705 41 9 0.0 3.0 0.00 0.00 0.00 61 1026.4
20190318100204 41 5 1.0 5.0 0.00 0.00 0.00 61 1026.2
20190318095704 41 94 2.0 5.0 0.00 0.00 0.00 61 1026.0
20190318095205 41 121 0.0 5.0 0.00 0.00 0.00 60 1026.0
20190318094705 41 126 0.0 5.0 0.00 0.00 0.00 60 1026.1
20190318094205 41 63 2.0 5.0 0.00 0.00 0.00 60 1026.1
20190318093705 42 88 1.0 3.0 0.00 0.00 0.00 59 1026.1
20190318093205 41 169 0.0 7.0 0.00 0.00 0.00 59 1026.1
20190318092705 42 120 2.0 7.0 0.00 0.00 0.00 58 1026.1
20190318092204 42 162 2.0 6.0 0.00 0.00 0.00 58 1026.2
20190318091704 42 171 3.0 6.0 0.00 0.00 0.00 58 1026.2
20190318091205 42 120 2.0 9.0 0.00 0.00 0.00 58 1026.3
20190318090704 42 137 0.0 9.0 0.00 0.00 0.00 58 1026.3
20190318090205 42 95 3.0 9.0 0.00 0.00 0.00 58 1026.3
20190318085704 42 100 4.0 8.0 0.00 0.00 0.00 58 1026.6
20190318085205 42 104 3.0 8.0 0.00 0.00 0.00 58 1026.6
20190318084705 42 112 5.0 8.0 0.00 0.00 0.00 58 1026.6
20190318084205 42 135 2.0 6.0 0.00 0.00 0.00 58 1026.6
20190318083705 42 175 2.0 5.0 0.00 0.00 0.00 57 1026.9
20190318083205 43 112 5.0 5.0 0.00 0.00 0.00 57 1026.9
20190318082706 43 112 4.0 9.0 0.00 0.00 0.00 57 1026.9
20190318082205 43 83 3.0 9.0 0.00 0.00 0.00 57 1026.8
20190318081704 43 90 1.0 9.0 0.00 0.00 0.00 57 1026.8
20190318081205 43 75 3.0 10.0 0.00 0.00 0.00 56 1026.8
20190318080704 44 13 2.0 10.0 0.00 0.00 0.00 56 1026.8
20190318080205 44 51 4.0 9.0 0.00 0.00 0.00 55 1026.8
20190318075705 44 42 4.0 9.0 0.00 0.00 0.00 55 1026.6
20190318075204 44 90 7.0 9.0 0.00 0.00 0.00 54 1026.6
20190318074705 44 93 6.0 12.0 0.00 0.00 0.00 54 1026.7
20190318074204 44 88 5.0 12.0 0.00 0.00 0.00 54 1026.7
20190318073704 45 90 6.0 12.0 0.00 0.00 0.00 53 1026.9
20190318073204 45 75 5.0 12.0 0.00 0.00 0.00 53 1026.9
20190318072705 45 100 7.0 15.0 0.00 0.00 0.00 53 1026.9
20190318072205 45 22 6.0 15.0 0.00 0.00 0.00 52 1026.8
20190318071704 45 114 7.0 15.0 0.00 0.00 0.00 52 1026.8
20190318071205 45 157 6.0 12.0 0.00 0.00 0.00 52 1026.6
20190318070704 46 68 6.0 12.0 0.00 0.00 0.00 52 1026.6
20190318070204 46 115 3.0 12.0 0.00 0.00 0.00 51 1026.6
20190318065705 46 95 6.0 12.0 0.00 0.00 0.00 51 1026.7
20190318065205 46 89 6.0 12.0 0.00 0.00 0.00 51 1026.7
20190318064705 46 62 7.0 13.0 0.00 0.00 0.00 51 1026.6
20190318064204 46 105 5.0 14.0 0.00 0.00 0.00 51 1026.6
20190318063705 46 57 11.0 14.0 0.00 0.00 0.00 51 1026.7
20190318063205 46 56 5.0 9.0 0.00 0.00 0.00 52 1026.7
20190318062704 46 73 5.0 10.0 0.00 0.00 0.00 52 1026.7
20190318062205 46 67 7.0 15.0 0.00 0.00 0.00 52 1026.7
20190318061704 46 45 10.0 15.0 0.00 0.00 0.00 52 1026.7
20190318061205 46 90 10.0 15.0 0.00 0.00 0.00 53 1026.7